DW3499 Weather Reports


Display with metric or nautical units.
time (UTC)temp
F
wind
direction
speed
MPH
gust
MPH
rain 1hr
in
rain 24hr
in
rain mn
in
humidity
%
barometer
mb
20260506031657 59 181 1.0 6.0 0.00 0.05 0.05 75 1016.6
20260506031137 59 226 2.0 6.0 0.00 0.05 0.05 75 1016.6
20260506030618 59 260 2.0 5.0 0.00 0.05 0.05 74 1016.5
20260506025348 60 265 2.0 5.0 0.00 0.05 0.05 74 1016.4
20260506023409 60 273 1.0 5.0 0.00 0.05 0.05 73 1016.1
20260506022848 61 261 1.0 7.0 0.00 0.05 0.05 73 1016.0
20260506022325 61 270 2.0 6.0 0.00 0.05 0.05 72 1015.9
20260506021805 61 244 2.0 10.0 0.00 0.05 0.05 72 1015.9
20260506021245 61 254 4.0 8.0 0.00 0.05 0.05 72 1015.9
20260506020724 61 247 2.0 9.0 0.00 0.05 0.05 72 1016.0
20260506020203 61 254 2.0 5.0 0.00 0.05 0.05 71 1015.9
20260506015642 62 291 2.0 6.0 0.00 0.05 0.05 71 1015.9
20260506014412 62 254 2.0 7.0 0.00 0.05 0.05 71 1015.8
20260506013849 62 267 1.0 6.0 0.00 0.05 0.05 71 1015.7
20260506013330 62 218 1.0 5.0 0.00 0.05 0.05 71 1015.8
20260506012809 62 268 1.0 4.0 0.00 0.05 0.05 71 1015.8
20260506012248 62 213 1.0 5.0 0.00 0.05 0.05 71 1015.8
20260506011726 62 251 1.0 4.0 0.00 0.05 0.05 71 1015.8
20260506011203 62 288 1.0 10.0 0.00 0.05 0.05 70 1015.7
20260506010643 62 211 2.0 7.0 0.00 0.05 0.05 70 1015.7
20260506010122 62 205 2.0 5.0 0.00 0.05 0.05 70 1015.7
20260506005600 62 282 1.0 5.0 0.00 0.05 0.05 70 1015.7
20260506005037 62 305 2.0 6.0 0.00 0.05 0.05 70 1015.7
20260506003809 62 269 1.0 6.0 0.00 0.05 0.05 70 1015.6
20260506003249 62 208 2.0 6.0 0.00 0.05 0.05 70 1015.6
20260506001309 62 281 3.0 9.0 0.00 0.05 0.05 69 1015.5
20260506000040 63 248 2.0 9.0 0.00 0.05 0.05 69 1015.4
20260505235517 63 264 3.0 9.0 0.00 0.05 0.05 69 1015.4
20260505234956 63 235 4.0 8.0 0.00 0.05 0.05 69 1015.4
20260505234436 63 244 2.0 6.0 0.00 0.05 0.05 70 1015.4
20260505233915 63 290 3.0 6.0 0.00 0.05 0.05 70 1015.4
20260505233354 62 242 3.0 9.0 0.00 0.05 0.05 70 1015.5
20260505232125 63 222 3.0 8.0 0.00 0.05 0.05 69 1015.6
20260505225440 63 273 2.0 4.0 0.00 0.05 0.05 69 1015.5
20260505224917 63 283 3.0 5.0 0.00 0.05 0.05 68 1015.5
20260505224357 64 249 2.0 6.0 0.00 0.05 0.05 67 1015.5
20260505222421 65 216 1.0 6.0 0.00 0.05 0.05 65 1015.6
20260505221900 65 219 2.0 6.0 0.00 0.05 0.05 64 1015.7
20260505221339 65 336 1.0 6.0 0.00 0.05 0.05 62 1015.7
20260505220110 66 325 4.0 8.0 0.00 0.05 0.05 61 1015.6
20260505215547 66 288 1.0 7.0 0.00 0.05 0.05 62 1015.7
20260505215027 66 277 2.0 7.0 0.00 0.05 0.05 62 1015.7
20260505214507 66 252 1.0 6.0 0.00 0.05 0.05 62 1015.7
20260505213947 65 197 2.0 7.0 0.00 0.05 0.05 62 1015.8
20260505213426 65 321 3.0 7.0 0.00 0.05 0.05 62 1015.8
20260505212905 65 270 3.0 6.0 0.00 0.05 0.05 62 1015.9
20260505211635 65 275 2.0 7.0 0.00 0.05 0.05 63 1016.0
20260505205659 65 311 3.0 9.0 0.00 0.05 0.05 62 1016.0
20260505205139 65 252 1.0 5.0 0.00 0.05 0.05 63 1015.9
20260505204618 65 310 3.0 8.0 0.00 0.05 0.05 63 1015.8
20260505204055 65 267 3.0 7.0 0.00 0.05 0.05 63 1015.8
20260505203534 65 254 1.0 6.0 0.00 0.05 0.05 63 1015.9
20260505203013 65 302 4.0 7.0 0.00 0.05 0.05 62 1016.0
20260505202451 65 218 4.0 11.0 0.00 0.05 0.05 63 1016.0
20260505201931 65 230 3.0 8.0 0.00 0.05 0.05 63 1016.0
20260505201409 65 263 2.0 5.0 0.00 0.05 0.05 65 1016.0
20260505200848 64 300 3.0 6.0 0.00 0.05 0.05 64 1016.1
20260505200327 64 325 3.0 6.0 0.00 0.05 0.05 64 1016.1
20260505195806 65 267 4.0 6.0 0.00 0.05 0.05 64 1016.2
20260505195244 64 260 2.0 6.0 0.00 0.05 0.05 65 1016.2
20260505194723 64 274 2.0 5.0 0.00 0.05 0.05 64 1016.1
20260505194201 64 240 1.0 6.0 0.00 0.05 0.05 64 1016.2
20260505193639 64 220 3.0 7.0 0.00 0.05 0.05 65 1016.3
20260505193117 64 331 3.0 7.0 0.00 0.05 0.05 65 1016.2
20260505192557 64 289 2.0 6.0 0.00 0.05 0.05 68 1016.3
20260505192037 63 260 2.0 6.0 0.00 0.05 0.05 67 1016.3
20260505191517 63 235 1.0 4.0 0.00 0.05 0.05 68 1016.2
20260505190955 63 302 2.0 5.0 0.00 0.05 0.05 68 1016.2
20260505190433 63 223 3.0 6.0 0.00 0.05 0.05 68 1016.2
20260505185203 62 286 1.0 8.0 0.00 0.05 0.05 70 1016.1
20260505184641 62 324 2.0 6.0 0.00 0.05 0.05 70 1016.1
20260505184121 62 243 2.0 5.0 0.00 0.05 0.05 71 1016.1
20260505183600 62 240 2.0 4.0 0.00 0.05 0.05 74 1016.2
20260505183037 61 295 1.0 5.0 0.00 0.05 0.05 75 1016.2
20260505182517 61 234 1.0 4.0 0.00 0.05 0.05 76 1016.3
20260505181955 60 265 1.0 6.0 0.00 0.05 0.05 76 1016.3
20260505181434 60 269 2.0 6.0 0.00 0.05 0.05 77 1016.2
20260505180911 60 289 2.0 7.0 0.00 0.05 0.05 78 1016.2
20260505180351 60 336 2.0 6.0 0.00 0.05 0.05 80 1016.2
20260505175831 60 285 2.0 7.0 0.00 0.05 0.05 82 1016.1
20260505175309 59 295 1.0 4.0 0.00 0.05 0.05 84 1016.1
20260505174749 58 254 1.0 6.0 0.00 0.05 0.05 85 1016.1
20260505174227 58 323 1.0 4.0 0.00 0.05 0.05 86 1016.0
20260505173705 58 258 2.0 5.0 0.00 0.05 0.05 87 1015.8
20260505173144 57 287 2.0 5.0 0.00 0.05 0.05 87 1015.9
20260505171915 57 269 1.0 3.0 0.00 0.05 0.05 88 1015.8
20260505171355 57 272 1.0 1.0 0.00 0.05 0.05 88 1015.8
20260505170835 56 272 1.0 3.0 0.00 0.05 0.05 88 1015.8
20260505165606 56 0 0.0 4.0 0.00 0.05 0.05 88 1015.9
20260505165043 56 0 0.0 3.0 0.00 0.05 0.05 88 1015.8
20260505164521 56 0 0.0 4.0 0.00 0.05 0.05 88 1015.8
20260505164001 56 279 1.0 2.0 0.00 0.05 0.05 88 1015.8
20260505163439 56 282 1.0 3.0 0.00 0.05 0.05 88 1015.8
20260505162211 55 240 1.0 3.0 0.00 0.05 0.05 88 1015.7
20260505160943 55 0 0.0 1.0 0.00 0.05 0.05 89 1015.6
20260505160421 55 240 1.0 2.0 0.00 0.05 0.05 89 1015.6
20260505152134 55 0 0.0 0.0 0.00 0.05 0.05 89 1015.3
20260505151612 55 0 0.0 0.0 0.00 0.05 0.05 89 1015.3
20260505151049 54 0 0.0 0.0 0.00 0.05 0.05 89 1015.2
20260505150527 54 0 0.0 0.0 0.00 0.05 0.05 89 1015.2
20260505124750 53 0 0.0 0.0 0.01 0.05 0.05 88 1014.8
20260505124227 53 0 0.0 0.0 0.01 0.05 0.05 88 1014.8
20260505123705 53 0 0.0 0.0 0.01 0.05 0.05 88 1014.7
20260505123143 53 0 0.0 0.0 0.01 0.05 0.05 88 1014.7
20260505122621 53 0 0.0 0.0 0.01 0.05 0.05 88 1014.7
20260505122101 53 0 0.0 0.0 0.01 0.05 0.05 88 1014.7
20260505121539 53 0 0.0 0.0 0.01 0.05 0.05 88 1014.6
20260505121017 53 0 0.0 0.0 0.01 0.05 0.05 88 1014.6
20260505120455 53 0 0.0 0.0 0.01 0.05 0.05 88 1014.4
20260505115227 53 0 0.0 0.0 0.01 0.05 0.05 88 1014.6
20260505114707 53 0 0.0 0.0 0.00 0.04 0.04 88 1014.6
20260505114147 53 0 0.0 0.0 0.00 0.04 0.04 88 1014.6
20260505113626 53 0 0.0 0.0 0.00 0.04 0.04 88 1014.8
20260505113105 53 0 0.0 0.0 0.00 0.04 0.04 88 1015.0
20260505112544 53 0 0.0 0.0 0.01 0.04 0.04 88 1015.0
20260505112023 53 0 0.0 0.0 0.01 0.04 0.04 87 1015.0
20260505111501 53 0 0.0 0.0 0.01 0.04 0.04 87 1014.9
20260505110941 53 0 0.0 0.0 0.01 0.04 0.04 87 1014.8
20260505110419 53 0 0.0 0.0 0.01 0.04 0.04 87 1014.8
20260505101941 53 0 0.0 0.0 0.00 0.03 0.03 87 1014.7
20260505101419 53 0 0.0 0.0 0.00 0.03 0.03 87 1014.6
20260505100857 53 0 0.0 0.0 0.00 0.03 0.03 87 1014.7
20260505100335 53 0 0.0 1.0 0.00 0.03 0.03 86 1014.8
20260505095813 53 280 1.0 1.0 0.01 0.03 0.03 86 1014.7
20260505095253 53 280 1.0 1.0 0.01 0.03 0.03 86 1014.8
20260505094733 53 0 0.0 0.0 0.01 0.03 0.03 86 1014.9
20260505094211 53 0 0.0 0.0 0.02 0.03 0.03 86 1014.9
20260505093651 53 0 0.0 0.0 0.02 0.03 0.03 86 1015.0
20260505093129 53 0 0.0 0.0 0.02 0.03 0.03 85 1015.0
20260505092607 54 0 0.0 0.0 0.02 0.03 0.03 85 1015.1
20260505092047 54 0 0.0 0.0 0.02 0.03 0.03 85 1015.1
20260505091527 54 0 0.0 0.0 0.02 0.03 0.03 85 1015.2
20260505091007 54 0 0.0 0.0 0.02 0.03 0.03 85 1015.2
20260505090445 54 0 0.0 0.0 0.02 0.03 0.03 85 1015.4
20260505085923 54 0 0.0 0.0 0.01 0.02 0.02 85 1015.4
20260505085403 54 0 0.0 0.0 0.01 0.02 0.02 84 1015.3
20260505084135 54 0 0.0 0.0 0.01 0.01 0.01 84 1015.3
20260505083615 54 0 0.0 0.0 0.01 0.01 0.01 84 1015.4
20260505083053 54 0 0.0 0.0 0.01 0.01 0.01 83 1015.3
20260505082531 54 0 0.0 0.0 0.01 0.01 0.01 83 1015.4
20260505082011 54 0 0.0 0.0 0.01 0.01 0.01 83 1015.3
20260505081449 54 0 0.0 0.0 0.01 0.01 0.01 83 1015.4
20260505080927 54 281 1.0 1.0 0.01 0.01 0.01 82 1015.5
20260505080405 54 281 1.0 2.0 0.01 0.01 0.01 82 1015.6
20260505075135 54 285 1.0 2.0 0.01 0.01 0.01 81 1015.6
20260505074613 54 0 0.0 3.0 0.01 0.01 0.01 81 1015.6
20260505074053 54 334 1.0 4.0 0.00 0.00 0.00 80 1015.7
20260505072823 54 261 1.0 5.0 0.00 0.00 0.00 79 1015.7
20260505072301 54 258 1.0 4.0 0.00 0.00 0.00 79 1015.7
20260505071739 54 284 1.0 6.0 0.00 0.00 0.00 78 1015.7
20260505065802 55 248 2.0 6.0 0.00 0.00 0.00 78 1015.6
20260505065242 55 246 1.0 5.0 0.00 0.00 0.00 78 1015.5
20260505064722 55 256 2.0 4.0 0.00 0.00 0.00 78 1015.4
20260505064200 55 292 2.0 4.0 0.00 0.00 0.00 78 1015.4
20260505062932 55 255 1.0 5.0 0.00 0.00 0.00 76 1015.3
20260505062410 55 247 1.0 4.0 0.00 0.00 0.00 76 1015.3
20260505061142 55 248 2.0 5.0 0.00 0.00 0.00 75 1015.1
20260505060622 55 259 2.0 6.0 0.00 0.00 0.00 75 1015.1
20260505060059 55 267 2.0 5.0 0.00 0.00 0.00 75 1015.0
20260505055538 55 220 2.0 5.0 0.00 0.00 0.00 75 1015.0
20260505055015 55 244 1.0 5.0 0.00 0.00 0.00 75 1015.1
20260505054454 55 251 2.0 5.0 0.00 0.00 0.00 75 1015.1
20260505052516 56 302 2.0 6.0 0.00 0.00 0.00 76 1015.3
20260505051953 56 311 1.0 4.0 0.00 0.00 0.00 75 1015.3
20260505050724 56 305 3.0 6.0 0.00 0.00 0.00 75 1015.5
20260505050201 56 310 2.0 6.0 0.00 0.00 0.00 76 1015.7
20260505041723 57 267 3.0 6.0 0.00 0.00 0.00 78 1015.3
20260505041201 57 315 2.0 6.0 0.00 0.00 0.00 78 1015.2
20260505035931 57 324 3.0 7.0 0.00 0.00 0.00 77 1015.1
20260505034702 58 263 3.0 8.0 0.00 0.00 0.00 76 1015.0
20260505034140 58 323 2.0 5.0 0.00 0.00 0.00 76 1014.9
20260505033617 58 311 2.0 5.0 0.00 0.00 0.00 76 1014.8
20260505033055 58 332 2.0 4.0 0.00 0.00 0.00 75 1014.7
20260505032534 58 243 1.0 4.0 0.00 0.00 0.00 74 1014.6